Regional Weather Roundup
Issued by NWS

Home | Current Version | Previous Version | Graphics & Text | Print | Product List | Glossary On
Versions: 1 2 3 4 5 6 7 8 9 10 11 12 13 14 15 16 17 18 19 20 21 22 23 24 25 26 27 28 29 30 31 32 33 34 35 36 37 38 39 40 41 42 43 44 45 46 47 48 49 50
000
ASUS45 KBOI 222210
RWRID
WEATHER ROUNDUP FOR IDAHO
NATIONAL WEATHER SERVICE BOISE ID
400 PM MDT FRI AUG 22 2014

NOTE: "FAIR" INDICATES FEW OR NO CLOUDS BELOW 12000 FEET
WITH NO SIGNIFICANT WEATHER AND/OR OBSTRUCTIONS TO VISIBILITY

IDZ012-014-222300-
SOUTHWEST IDAHO


CITY           SKY/WX    TMP DP  RH WIND       PRES   REMARKS
BOISE          MOSUNNY   79  32  18 NW10G18   29.87F
CALDWELL       MOSUNNY   81  37  21 N12       29.88F
MOUNTAIN HOME  MOSUNNY   80  44  28 NW13G18   29.86F
$$

IDZ016-017-222300-
SOUTHCENTRAL IDAHO


CITY           SKY/WX    TMP DP  RH WIND       PRES   REMARKS
BURLEY         LGT RAIN  57  51  80 S10       29.97R
JEROME         LGT RAIN  67  57  70 S7        29.94S
TWIN FALLS     LGT RAIN  66  57  72 S5        29.95F
$$

IDZ019>023-222300-
SOUTHEAST IDAHO


CITY           SKY/WX    TMP DP  RH WIND       PRES   REMARKS
IDAHO FALLS    CLOUDY    61  51  70 SW7       30.05F
POCATELLO      LGT RAIN  58  53  84 E8        29.99F
REXBURG        CLOUDY    59  47  64 S10       30.06F
$$

IDZ006-010-011-018-031-032-222300-
CENTRAL IDAHO MOUNTAINS


CITY           SKY/WX    TMP DP  RH WIND       PRES   REMARKS
MCCALL         TSTM      54  44  69 SE12      30.01R
HAILEY         TSTM      61  48  63 W12G20    30.02R
STANLEY          N/A     46  44  93 NW5       30.15R
SALMON         CLOUDY    61  45  55 S17       30.01S
CHALLIS        LGT RAIN  52  43  71 CALM      30.11S
$$

IDZ002-004-006-007-026-222300-
NORTHERN IDAHO


CITY           SKY/WX    TMP DP  RH WIND       PRES   REMARKS
LEWISTON       MOSUNNY   80  45  28 VRB5      29.90F
LOWELL           N/A     69  56  62 VRB5      29.87R
COEUR D`ALENE  PTSUNNY  N/A N/A N/A N22G28    30.00S
MULLAN PASS    PTSUNNY   56  47  71 CALM      30.11R
$$



USA.gov is the U.S. government's official web portal to all federal, state and local government web resources and services.